Wind_Speed
12 11 10 9 10 11 12 12 10 9 8 9 11 14 14 13 13 12 12 13 13 14 14 15 16 16 17 17 17 16 15 14 13 13 12 10 8 7 7 7 6 4 2
12 12 11 10 11 12 13 12 10 8 6 6 8 11 13 12 12 12 13 13 12 12 13 14 16 17 18 18 18 17 16 15 14 13 11 10 8 7 7 6 6 5 4
13 13 13 12 12 12 13 12 10 9 6 5 5 7 9 9 10 11 13 13 13 13 12 14 16 18 19 19 18 17 16 15 13 12 10 9 8 7 6 5 5 4 4
13 14 14 13 13 13 13 13 12 11 8 6 5 5 6 7 8 10 12 13 14 14 14 14 14 15 15 15 15 14 14 13 12 11 10 9 8 7 6 6 5 4 4
13 14 15 14 14 14 15 14 13 12 9 7 5 3 4 6 8 9 11 13 14 15 14 14 13 13 12 12 11 12 12 12 12 11 10 9 8 7 7 6 6 6 5
13 15 16 16 15 15 16 16 14 13 11 8 5 2 2 4 6 7 9 11 13 15 15 15 15 14 13 13 12 12 11 11 12 11 11 9 8 8 7 7 7 7 7
16 17 18 18 18 18 17 17 15 15 13 10 7 5 4 4 5 5 7 9 12 13 15 16 18 18 17 16 16 14 13 13 14 13 12 10 9 9 8 8 8 7 8
20 21 23 23 22 21 20 19 18 17 16 13 10 8 7 7 7 6 6 7 10 12 14 15 16 17 19 19 19 19 18 17 17 16 14 12 11 10 10 10 10 9 9
23 24 25 27 26 25 23 22 20 19 18 16 13 11 11 11 11 10 9 8 8 10 12 13 15 16 17 19 19 20 20 20 20 18 16 15 13 11 11 12 12 11 11
24 25 27 28 29 29 27 25 22 21 21 19 16 14 13 13 13 14 13 12 10 10 11 12 13 15 16 17 18 19 19 19 20 20 18 16 15 13 13 13 14 14 14
23 24 26 29 30 31 30 28 26 25 24 22 20 18 17 16 15 15 15 15 15 15 13 13 13 14 15 16 16 17 18 19 20 20 19 18 17 17 16 16 16 16 16
22 22 24 27 30 32 32 31 29 28 27 26 24 22 21 19 18 16 16 16 17 17 16 15 14 15 15 16 16 16 17 18 19 20 20 20 20 20 20 19 18 18 18
20 21 24 27 30 32 33 32 31 31 30 28 28 26 24 22 20 17 16 15 16 16 16 16 16 17 17 17 16 16 16 17 18 19 21 21 21 22 22 21 19 19 20
17 19 23 26 29 32 32 32 31 32 30 30 29 28 26 25 23 20 18 16 16 16 16 16 16 17 18 18 17 16 16 16 18 19 20 21 22 22 22 21 20 21 22
16 17 19 23 26 28 31 32 32 32 31 31 31 30 29 27 26 25 23 21 20 18 17 16 16 16 16 17 17 17 17 17 18 19 20 21 22 23 22 21 22 23 24
17 19 20 19 22 24 27 29 32 32 32 32 33 32 32 31 30 28 27 25 24 22 20 19 18 17 17 16 17 18 18 18 19 20 21 22 22 23 22 23 23 24 24
19 20 20 21 23 25 27 30 32 33 32 32 33 33 33 33 32 31 29 27 25 24 23 23 22 21 20 19 19 19 19 19 19 20 21 22 22 22 23 23 23 23 23
20 20 21 22 23 24 26 28 30 32 32 33 34 35 35 36 35 34 32 30 28 27 25 25 25 24 22 21 20 20 20 20 19 20 21 22 22 22 23 23 21 21 21
20 20 21 22 23 24 24 26 28 30 32 34 35 35 36 36 35 35 34 34 32 30 28 27 26 24 22 20 20 21 21 20 19 20 21 23 23 22 22 22 20 20 19
19 19 20 21 22 22 23 24 25 28 30 32 33 33 34 34 33 33 33 34 34 32 30 28 26 24 22 21 21 21 20 20 19 20 21 23 23 22 21 20 19 18 18
20 20 20 21 22 22 22 24 24 26 28 28 29 29 30 31 31 31 32 33 33 32 30 28 25 24 23 21 20 21 21 20 21 21 22 23 22 21 20 19 17 16 17
22 21 21 21 21 21 22 23 24 25 26 27 28 29 29 29 29 29 31 32 32 31 29 26 25 24 23 21 21 22 22 22 23 24 24 23 22 21 20 18 17 16 16
24 24 23 22 22 22 22 22 23 24 25 28 29 29 29 28 28 28 30 30 30 29 28 26 25 25 25 23 22 21 21 23 25 25 25 24 22 21 20 20 19 18 17
25 25 25 23 23 23 23 23 23 24 25 26 28 29 29 29 28 28 29 29 29 29 28 27 27 27 27 25 24 22 21 23 25 25 25 24 23 22 22 21 20 19 18
24 25 25 24 23 24 24 25 26 25 25 26 27 28 28 30 30 30 30 30 30 30 29 28 28 28 28 27 26 25 24 23 24 24 25 24 23 22 22 22 21 20 19
27 25 25 24 25 25 25 26 27 27 26 25 26 28 28 30 32 32 32 32 32 32 31 31 31 31 30 29 28 27 26 25 25 25 25 24 24 23 23 22 22 21 20
Wind_Direction
250 241 237 237 232 235 241 244 245 244 249 248 242 239 239 244 246 239 230 221 215 211 209 207 208 210 213 215 218 224 231 239 248 257 262 262 257 256 256 256 256 257 269
254 244 234 232 229 232 238 243 238 233 241 255 247 239 237 240 242 236 229 222 217 214 213 213 214 218 221 224 227 233 241 248 253 255 253 249 247 249 251 254 257 258 260
259 248 234 230 225 226 233 235 235 234 242 261 263 245 238 237 237 232 228 224 218 214 214 214 215 219 223 227 232 238 244 248 247 243 239 239 241 240 240 244 250 252 255
258 247 235 230 225 223 228 231 238 240 242 257 268 263 247 235 229 224 222 220 216 212 213 213 213 215 219 224 229 234 236 235 231 230 230 231 229 226 227 231 239 245 254
255 246 238 232 227 225 229 231 240 240 237 243 250 278 254 232 224 220 218 217 215 213 214 217 216 216 216 217 219 223 225 226 224 222 218 217 220 224 229 237 246 253 256
257 246 241 235 230 227 229 233 237 235 233 227 222 229 221 219 219 218 218 216 214 215 218 222 223 222 221 219 219 219 224 226 223 216 214 218 228 238 243 246 250 254 253
266 254 243 238 234 230 229 230 232 233 231 222 220 221 218 215 215 212 215 217 215 215 219 224 228 229 228 226 227 228 230 228 225 222 227 236 247 251 251 248 246 247 249
270 264 250 240 237 232 227 226 228 233 231 222 219 224 229 225 227 223 213 213 218 219 220 222 229 233 233 233 234 236 238 233 228 229 236 245 254 258 257 251 247 249 253
269 264 252 242 236 231 227 226 228 235 233 226 221 224 233 230 233 233 228 222 221 225 225 226 230 234 237 237 240 242 242 237 230 230 236 245 251 258 261 258 256 257 261
266 260 249 241 235 231 229 227 229 234 231 229 227 228 235 237 237 241 238 236 233 230 229 231 233 236 239 243 246 246 245 241 236 236 241 247 252 258 262 264 264 263 265
265 257 246 237 234 233 230 228 228 230 230 231 233 234 237 240 239 240 242 241 239 234 232 234 238 241 244 247 249 250 248 247 244 244 248 252 256 261 264 266 268 269 269
263 252 242 236 234 233 230 228 228 229 230 231 234 236 239 242 241 239 239 241 241 238 236 238 242 245 246 246 248 250 250 249 248 248 250 253 256 260 262 263 266 270 274
261 250 244 240 236 233 230 226 226 228 230 234 236 237 239 242 242 237 235 239 242 243 242 243 247 246 244 244 246 248 249 250 250 251 252 254 257 259 260 261 266 273 279
261 256 254 245 238 233 229 225 223 226 230 234 235 236 239 240 241 238 237 240 247 248 245 245 247 245 242 242 244 247 250 253 254 255 256 257 258 258 258 262 270 276 281
265 259 261 252 239 232 228 225 225 228 232 234 234 235 237 240 242 242 242 244 249 254 250 245 244 244 243 244 248 252 256 260 261 262 261 260 258 257 259 266 273 277 281
268 263 260 253 241 234 231 231 230 232 235 236 236 237 239 241 243 244 244 245 248 252 253 248 245 245 247 249 253 257 259 262 264 264 264 261 259 258 262 270 274 278 279
272 266 261 254 247 242 240 238 237 237 237 237 237 239 240 241 243 243 243 243 244 248 251 250 248 248 249 252 257 260 261 262 264 265 265 264 261 262 268 273 274 276 276
274 269 261 257 254 249 243 240 239 237 238 239 241 242 242 243 244 243 242 241 241 244 249 253 252 251 253 254 256 259 261 262 264 266 267 267 266 268 271 272 273 275 276
271 267 262 258 255 252 248 244 242 240 239 241 243 244 244 245 243 242 241 240 240 243 249 253 254 252 252 252 255 256 258 260 263 265 267 268 267 269 270 270 271 274 276
269 267 263 260 258 255 251 249 246 242 241 241 242 243 243 242 240 239 239 238 238 241 246 250 252 250 250 253 253 253 255 257 261 265 267 267 268 269 269 267 268 271 276
269 269 266 262 258 257 254 251 247 245 241 239 240 240 240 238 237 236 234 234 236 238 242 245 247 247 250 250 249 248 251 255 259 264 267 266 267 268 266 264 266 270 276
270 270 268 264 258 254 253 250 248 247 243 240 241 240 238 237 235 232 231 232 234 235 237 241 242 243 245 246 247 248 252 256 260 261 263 264 265 265 264 265 267 269 274
269 267 264 261 256 253 253 252 249 248 245 242 240 238 235 235 233 230 229 229 230 231 234 237 239 240 243 245 248 251 254 257 258 257 259 261 262 263 264 266 267 269 271
267 265 259 257 255 255 256 255 254 251 248 244 242 240 238 236 232 230 229 229 229 232 234 235 236 237 240 244 247 250 256 259 257 254 255 257 259 262 264 267 267 268 268
270 266 258 255 254 255 255 254 253 252 249 247 246 243 240 236 232 231 231 230 231 232 233 234 235 238 242 245 248 251 255 258 258 255 254 255 258 262 265 266 266 265 265
268 267 259 255 254 253 251 250 250 250 248 247 246 244 242 240 236 233 232 233 234 234 234 234 236 238 241 245 248 251 254 257 257 255 254 255 258 262 263 264 264 263 261
Height
5847 5848 5849 5850 5850 5851 5852 5853 5853 5854 5856 5856 5857 5858 5860 5861 5863 5864 5865 5867 5869 5871 5873 5875 5878 5881 5884 5886 5887 5889 5890 5892 5893 5893 5893 5893 5894 5895 5895 5896 5896 5897 5898
5844 5846 5847 5847 5848 5849 5851 5852 5852 5853 5854 5855 5855 5856 5857 5858 5860 5861 5863 5865 5867 5869 5871 5873 5875 5878 5881 5883 5885 5887 5888 5889 5890 5890 5891 5891 5892 5893 5893 5894 5895 5896 5897
5842 5843 5844 5845 5846 5847 5849 5850 5851 5851 5852 5853 5854 5854 5855 5856 5857 5858 5860 5862 5864 5867 5869 5871 5873 5876 5878 5881 5883 5885 5885 5886 5887 5888 5888 5889 5890 5891 5892 5892 5893 5894 5895
5839 5840 5841 5842 5843 5844 5846 5848 5849 5850 5851 5852 5852 5852 5853 5854 5855 5856 5858 5860 5862 5865 5867 5869 5872 5874 5876 5879 5881 5882 5883 5884 5885 5886 5886 5887 5888 5889 5890 5891 5891 5892 5893
5836 5837 5838 5840 5841 5842 5844 5846 5847 5849 5849 5850 5851 5851 5851 5852 5853 5855 5857 5859 5861 5863 5866 5869 5871 5873 5875 5876 5878 5880 5881 5883 5883 5884 5885 5886 5887 5888 5888 5889 5890 5891 5891
5833 5834 5835 5837 5838 5840 5841 5843 5845 5847 5848 5849 5850 5850 5851 5851 5851 5853 5855 5857 5860 5862 5865 5867 5869 5871 5873 5874 5876 5878 5880 5881 5882 5883 5884 5885 5886 5886 5887 5887 5888 5889 5889
5829 5830 5831 5833 5835 5836 5838 5840 5842 5844 5845 5847 5848 5849 5850 5851 5851 5852 5853 5856 5858 5860 5862 5865 5867 5869 5870 5872 5874 5876 5878 5879 5881 5882 5883 5884 5885 5885 5885 5885 5886 5887 5887
5825 5826 5827 5828 5830 5832 5835 5836 5839 5841 5843 5845 5846 5847 5849 5850 5850 5851 5853 5854 5856 5857 5859 5862 5864 5866 5868 5870 5871 5873 5875 5877 5879 5880 5881 5882 5883 5883 5884 5884 5884 5885 5885
5819 5820 5821 5822 5824 5827 5830 5832 5835 5838 5840 5842 5844 5846 5847 5848 5849 5850 5851 5853 5854 5856 5857 5859 5861 5863 5865 5866 5868 5869 5871 5873 5875 5877 5878 5879 5880 5881 5881 5881 5882 5882 5882
5813 5813 5814 5816 5819 5822 5825 5828 5831 5834 5836 5839 5841 5843 5845 5846 5847 5848 5849 5851 5852 5853 5855 5856 5858 5859 5861 5863 5864 5865 5867 5869 5871 5873 5875 5875 5876 5877 5877 5878 5879 5879 5879
5806 5806 5808 5810 5813 5816 5819 5823 5827 5829 5832 5835 5838 5840 5841 5843 5844 5845 5846 5848 5849 5851 5852 5854 5855 5856 5858 5859 5860 5862 5863 5865 5867 5868 5870 5871 5872 5873 5874 5874 5875 5875 5876
5800 5800 5801 5804 5807 5810 5813 5817 5821 5824 5827 5830 5833 5835 5837 5839 5840 5841 5843 5844 5845 5847 5849 5850 5852 5853 5854 5855 5857 5858 5859 5861 5862 5863 5865 5866 5868 5869 5869 5870 5871 5871 5871
5794 5794 5795 5798 5800 5803 5806 5810 5814 5817 5821 5824 5827 5830 5832 5834 5836 5837 5839 5840 5841 5843 5845 5847 5848 5849 5851 5852 5853 5854 5855 5857 5858 5859 5860 5862 5863 5864 5864 5865 5865 5865 5865
5788 5789 5789 5791 5793 5796 5800 5803 5807 5811 5814 5818 5821 5824 5826 5829 5831 5833 5834 5836 5838 5839 5841 5842 5844 5845 5846 5848 5849 5850 5851 5852 5854 5855 5856 5857 5858 5858 5859 5860 5860 5859 5859
5784 5785 5785 5786 5787 5790 5794 5797 5801 5805 5808 5811 5814 5817 5820 5823 5825 5827 5829 5831 5833 5834 5836 5838 5839 5841 5842 5843 5845 5846 5847 5848 5849 5850 5851 5852 5852 5853 5853 5854 5853 5853 5852
5779 5780 5781 5782 5783 5785 5788 5792 5795 5798 5801 5804 5808 5811 5814 5816 5819 5822 5824 5826 5827 5829 5831 5832 5835 5836 5837 5839 5840 5841 5842 5843 5844 5845 5846 5846 5846 5847 5847 5847 5847 5846 5845
5774 5775 5776 5777 5779 5781 5783 5785 5788 5791 5794 5797 5800 5804 5806 5809 5812 5815 5817 5820 5822 5823 5825 5826 5828 5831 5832 5834 5834 5836 5837 5838 5839 5839 5840 5840 5841 5841 5841 5840 5840 5839 5838
5768 5769 5771 5772 5773 5775 5776 5778 5781 5784 5787 5790 5793 5796 5799 5801 5804 5807 5810 5813 5815 5817 5819 5820 5822 5824 5826 5828 5829 5830 5831 5832 5833 5834 5834 5835 5835 5835 5835 5834 5833 5833 5832
5763 5764 5765 5766 5767 5768 5770 5772 5774 5776 5779 5782 5785 5788 5790 5793 5796 5799 5802 5805 5808 5810 5812 5814 5816 5818 5820 5822 5823 5824 5826 5827 5828 5828 5829 5829 5829 5829 5829 5828 5827 5827 5827
5757 5757 5758 5759 5760 5762 5763 5765 5766 5769 5771 5774 5777 5779 5782 5785 5788 5791 5794 5797 5800 5803 5805 5808 5810 5812 5814 5815 5817 5818 5820 5821 5823 5823 5824 5824 5823 5823 5823 5823 5823 5822 5822
5750 5751 5752 5752 5754 5755 5756 5758 5759 5761 5763 5766 5769 5771 5774 5777 5780 5783 5786 5789 5792 5796 5798 5801 5803 5805 5807 5809 5811 5813 5814 5816 5817 5818 5818 5818 5818 5817 5818 5818 5818 5817 5817
5744 5745 5745 5746 5747 5748 5750 5751 5753 5755 5756 5759 5761 5764 5767 5769 5772 5775 5779 5782 5785 5789 5792 5795 5797 5799 5801 5803 5806 5808 5809 5810 5811 5812 5812 5813 5812 5812 5812 5812 5812 5812 5813
5738 5738 5739 5740 5741 5742 5744 5745 5747 5749 5750 5752 5754 5757 5760 5763 5766 5768 5772 5775 5779 5782 5786 5789 5791 5793 5795 5797 5800 5802 5803 5803 5804 5805 5806 5807 5807 5807 5807 5807 5807 5807 5808
5730 5731 5732 5734 5735 5736 5737 5738 5740 5742 5744 5746 5748 5750 5753 5756 5759 5762 5765 5769 5772 5776 5779 5782 5784 5786 5788 5791 5794 5796 5797 5797 5797 5798 5799 5801 5801 5802 5802 5801 5801 5802 5802
5722 5723 5724 5726 5728 5729 5730 5732 5734 5736 5738 5739 5741 5744 5746 5749 5752 5755 5758 5762 5765 5768 5771 5774 5777 5779 5782 5784 5786 5789 5790 5790 5791 5792 5793 5794 5795 5796 5796 5796 5796 5797 5797
5714 5715 5716 5718 5720 5722 5724 5726 5728 5730 5731 5733 5735 5737 5739 5742 5744 5747 5750 5754 5757 5760 5764 5767 5769 5772 5774 5777 5779 5781 5783 5784 5784 5786 5787 5788 5789 5790 5790 5791 5791 5791 5792